Home   Weather   Paterson   Past weeks
Flag for USA

Past Weather in Paterson, New Jersey, USA — Yesterday and Last 2 Weeks

Now
74 °F

Heavy rain. Fog.


Feels Like: 71 °F
Forecast: 87 / 73 °F
Wind: 8 mph from Northwest

Location: Essex County Airport

Current Time: Jul 22, 2019 at 7:03:32 pm

Latest Report: Jul 22, 2019 at 6:28 pm


Visibility: 1 mi

Pressure: 29.74 "Hg

Humidity: 94%

Dew Point: 72 °F

Location of PatersonLocation

Past Weather in Paterson — Graph

°F

Paterson Temperature Yesterday

Maximum temperature yesterday: 99 °F (at 3:53 pm)
Minimum temperature yesterday: 80 °F (at 11:53 pm)
Average temperature yesterday: 89 °F

High & Low Weather Summary for the Past Weeks

 TemperatureHumidityPressure
High99 °F (Jul 21, 3:53 pm)97% (Jul 9, 4:53 am)30.11 "Hg (Jul 9, 4:53 am)
Low65 °F (Jul 15, 4:53 am)30% (Jul 14, 4:53 pm)29.71 "Hg (Jul 22, 4:03 pm)
Average80 °F71%29.92 "Hg
* Reported Jul 7 6:53 pm — Jul 22 6:00 pm, Paterson. Weather by CustomWeather, © 2019

Note: Actual official high and low records may vary slightly from our data, if they occured in-between our weather recording intervals... More about our weather records

Advertising

Paterson Weather History for the Previous 24 Hours

Scroll right to see more
 ConditionsComfort  
Time TempWeatherWind HumidityBarometerVisibility
6:00 pm
Mon, Jul 22
74 °FThunderstorms. Fog.8 mph97%29.73 "Hg5 mi
5:37 pm75 °FThunderstorms. Fog.13 mph90%29.72 "Hg2 mi
5:19 pm75 °FStrong thunderstorms. Fog.14 mph94%29.72 "Hg0 mi
5:07 pm78 °FThunderstorms. Mostly cloudy.No wind82%29.74 "Hg1 mi
4:56 pm81 °FThunderstorms. Mostly cloudy.6 mph72%29.71 "Hg10 mi
4:32 pm84 °FThunderstorms. Mostly cloudy.7 mph67%29.72 "Hg10 mi
4:03 pm86 °FThundershowers. Mostly cloudy.9 mph67%29.71 "Hg10 mi
3:53 pm87 °FThunderstorms. Cloudy.10 mph63%29.72 "Hg10 mi
3:18 pm91 °FThundershowers. Scattered clouds.7 mph57%29.72 "Hg10 mi
2:53 pm91 °FPassing clouds.5 mph56%29.73 "Hg10 mi
1:53 pm90 °FBroken clouds.7 mph56%29.78 "Hg10 mi
12:53 pm90 °FPartly sunny.5 mph57%29.80 "Hg10 mi
11:53 am89 °FPartly sunny.8 mph57%29.82 "Hg10 mi
10:53 am85 °FPartly sunny.7 mph65%29.84 "Hg10 mi
9:53 am82 °FSunny.5 mph72%29.86 "Hg10 mi
8:53 am80 °FScattered clouds.No wind76%29.88 "Hg10 mi
7:53 am78 °FPassing clouds.No wind87%29.88 "Hg10 mi
6:53 am77 °FScattered clouds.No wind90%29.87 "Hg10 mi
5:53 am76 °FScattered clouds.No wind91%29.87 "Hg10 mi
4:53 am77 °FClear.No wind88%29.85 "Hg10 mi
3:53 am78 °FClear.3 mph84%29.87 "Hg10 mi
2:53 am79 °FLight rain. Clear.3 mph79%29.84 "Hg10 mi
1:53 am78 °FPassing clouds.No wind87%29.88 "Hg10 mi
12:53 am79 °FPassing clouds.No wind88%29.90 "Hg10 mi
11:53 pm
Sun, Jul 21
80 °FPassing clouds.No wind85%29.84 "Hg10 mi
11:26 pm82 °FLight rain. Passing clouds.5 mph74%29.86 "Hg9 mi
11:14 pm82 °FThunderstorms. Passing clouds.No wind72%29.86 "Hg10 mi
10:53 pm82 °FPassing clouds.No wind74%29.87 "Hg10 mi
9:53 pm84 °FPassing clouds.No wind67%29.86 "Hg10 mi
8:53 pm85 °FClear.3 mph68%29.84 "Hg10 mi
7:53 pm86 °FSunny.6 mph67%29.83 "Hg10 mi
Weather by CustomWeather, © 2019

See weather overview